Location: Bothwell
(41.7170°N, 112.2589°W)
Time: 05:42:24
(UTC+00:00)

Vanguard 1 - Visible Passes

Search period start: 10 May 2026 00:00
Search period end: 20 May 2026 00:00
Orbit: 654 x 3817 km, 34.3° (Epoch: 9 May)

Date Brightness Start Highest point End Pass type
(mag) Time Alt. Az. Time Alt. Az. Time Alt. Az.
10 May 12.4 02:57:24 10° WSW 03:10:30 67° S 03:32:21 10° ESE visible
10 May 12.8 05:18:33 10° W 05:35:26 57° SSW 05:47:35 33° SE visible
10 May 13.2 07:42:48 10° W 07:59:54 32° SW 08:00:02 32° SW visible
11 May 12.5 03:16:37 10° W 03:30:02 66° S 03:52:03 10° ESE visible
11 May 12.8 05:38:04 10° W 05:54:55 51° SSW 06:04:41 36° SSE visible
11 May 13.4 08:03:28 10° W 08:17:09 25° SW 08:17:09 25° SW visible
12 May 12.5 03:35:53 10° W 03:49:36 64° S 04:09:24 14° ESE visible
12 May 13.0 05:57:41 10° W 06:14:18 45° SSW 06:21:53 36° S visible
12 May 13.6 08:25:00 10° W 08:34:22 18° WSW 08:34:22 18° WSW visible
13 May 12.6 03:55:12 10° W 04:09:08 60° SSW 04:26:41 19° SE visible
13 May 13.1 06:17:30 10° W 06:33:38 38° SSW 06:39:10 34° S visible
13 May 13.8 08:48:31 10° WSW 08:51:40 12° WSW 08:51:40 12° WSW visible
14 May 12.6 04:14:34 10° W 04:28:39 55° SSW 04:44:02 23° SE visible
14 May 13.2 06:37:35 10° W 06:52:54 31° SW 06:56:32 30° SSW visible
15 May 12.8 04:34:00 10° W 04:48:08 49° SSW 05:01:29 25° SSE visible
15 May 13.4 06:58:07 10° W 07:12:07 25° SW 07:13:59 25° SW visible
16 May 12.9 04:53:33 10° W 05:07:34 43° SSW 05:18:58 27° SSE visible
16 May 13.6 07:19:30 10° W 07:31:17 19° SW 07:31:29 19° SW visible
17 May 12.4 02:51:56 10° W 03:03:13 57° SSW 03:22:49 10° ESE visible
17 May 13.0 05:13:17 10° W 05:26:59 36° SSW 05:36:32 26° S visible
17 May 13.8 07:42:50 10° WSW 07:49:02 13° SW 07:49:02 13° SW visible
18 May 12.5 03:11:14 10° W 03:22:41 52° SSW 03:41:39 11° SE visible
18 May 13.2 05:33:18 10° W 05:46:21 30° SW 05:54:10 24° S visible
19 May 12.6 03:30:36 10° W 03:42:08 46° SSW 03:59:20 13° SE visible
19 May 13.4 05:53:47 10° W 06:05:42 23° SW 06:11:51 20° SSW visible
